Weather in Vozhgaly

Russia / Kirov Oblast     58°09′04″N   50°11′12″E
temp.,
°C
wind,
m/s
gust,
m/s
humid.,
%
clouds,
%
prec.,
mm/h
press.,
hPa
HPBL,
m
19 january, tue
tue1900:00−24sw229752 0.0 102120
03:00−24s129676 0.0 102120
06:00−23sse2296100 0.0 101920
09:00−23se2295100 0.0 101920
12:00−19e1291100 0.0 1019124
15:00−20ne2394100 0.0 101735
18:00−20ne2394100 0.0 101534
21:00−20nne3394100 0.0 101465
20 january, wed
wed2000:00−19n2395100 0.0 101353
03:00−19nnw2396100 0.0 101297
06:00−20nw2297100 0.0 101177
09:00−21nw2496100 0.0 1012110
12:00−20wnw239698 0.0 1012168
15:00−20wsw239990 0.0 101252
18:00−20w359993 0.1 1013121
21:00−18wsw379794 0.1 1013180
21 january, thu
thu2100:00−18wsw379795 0.1 1013174
03:00−18w369896 0.1 101391
06:00−19w36100100 0.0 1013106
09:00−19w3799100 0.1 1014160
12:00−16w4795100 0.0 1013327
15:00−15w3796100 0.1 1013325
18:00−15w259798 0.1 1013132
21:00−15w249795 0.2 101392
22 january, fri
fri2200:00−16w229789 0.1 101328
03:00−17nnw129791 0.3 101420
06:00−21nne2210087 0.1 101520
09:00−24nne2210093 0.1 101720
12:00−21nne229597 0.0 1017128
15:00−22ene239693 0.0 101926
18:00−23ese349589 0.0 102185
21:00−22se379588 0.0 1022160
23 january, sat
sat2300:00−20se589399 0.0 1022238
03:00−19se61195100 0.1 1021287
06:00−18se71197100 1.6 1019321
09:00−17sse71296100 3.9 1017419
12:00−14sse61095100 1.3 1015396
15:00−12se5995100 2.3 1013289
18:00−10se5895100 0.8 1013224
21:00−8se4696100 1.1 1012152